TimeMDT,TemperatureF,Dew PointF,Humidity,Sea Level PressureIn,VisibilityMPH,Wind Direction,Wind SpeedMPH,Gust SpeedMPH,PrecipitationIn,Events,Conditions,WindDirDegrees,DateUTC
12:53 AM,28.9,16.0,58,29.90,10.0,NNW,3.5,-,N/A,,Clear,340,2013-04-10 06:53:00
1:53 AM,28.9,15.1,56,29.91,10.0,NNW,8.1,20.7,N/A,,Overcast,330,2013-04-10 07:53:00
2:53 AM,27.0,12.9,56,29.93,10.0,NW,5.8,19.6,N/A,,Partly Cloudy,320,2013-04-10 08:53:00
3:53 AM,24.1,10.9,57,29.94,10.0,NNW,8.1,-,N/A,,Clear,330,2013-04-10 09:53:00
4:53 AM,21.9,12.0,66,29.95,10.0,WNW,8.1,-,N/A,,Clear,300,2013-04-10 10:53:00
5:53 AM,21.9,12.9,68,29.95,10.0,Calm,Calm,-,N/A,,Clear,0,2013-04-10 11:53:00
6:53 AM,19.9,12.0,71,29.96,10.0,Calm,Calm,-,N/A,,Clear,0,2013-04-10 12:53:00
7:53 AM,24.1,12.9,62,29.97,10.0,WNW,13.8,-,N/A,,Clear,300,2013-04-10 13:53:00
8:53 AM,27.0,12.9,56,29.98,10.0,West,11.5,18.4,N/A,,Clear,280,2013-04-10 14:53:00
9:53 AM,34.0,14.0,44,29.97,10.0,NW,12.7,16.1,N/A,,Clear,320,2013-04-10 15:53:00
10:53 AM,35.1,14.0,42,29.99,10.0,NNW,11.5,-,N/A,,Overcast,330,2013-04-10 16:53:00
12:53 PM,44.1,16.0,32,29.93,10.0,North,13.8,24.2,N/A,,Clear,10,2013-04-10 18:53:00
1:53 PM,45.0,15.1,30,29.91,10.0,North,11.5,24.2,N/A,,Scattered Clouds,360,2013-04-10 19:53:00
2:53 PM,45.0,15.1,30,29.91,10.0,NW,23.0,31.1,N/A,,Clear,320,2013-04-10 20:53:00
3:53 PM,46.9,16.0,29,29.90,10.0,North,17.3,33.4,N/A,,Clear,350,2013-04-10 21:53:00
4:53 PM,46.9,15.1,28,29.91,10.0,North,23.0,33.4,N/A,,Clear,360,2013-04-10 22:53:00
5:53 PM,44.1,15.1,31,29.94,10.0,North,13.8,26.5,N/A,,Clear,360,2013-04-10 23:53:00
6:53 PM,44.1,10.9,26,29.96,10.0,North,16.1,26.5,N/A,,Clear,360,2013-04-11 00:53:00
7:53 PM,39.0,12.0,33,29.98,10.0,North,9.2,-,N/A,,Clear,10,2013-04-11 01:53:00
8:53 PM,34.0,12.0,40,30.01,10.0,North,6.9,-,N/A,,Clear,350,2013-04-11 02:53:00
9:53 PM,30.0,12.0,47,30.02,10.0,NNE,6.9,-,N/A,,Clear,20,2013-04-11 03:53:00
10:53 PM,28.9,12.9,51,30.02,10.0,ENE,6.9,-,N/A,,Clear,70,2013-04-11 04:53:00
11:53 PM,30.9,14.0,50,30.00,10.0,ESE,4.6,-,N/A,,Overcast,110,2013-04-11 05:53:00